Fortuna, CA

9:51 AM PDT on September 18, 2019 (GMT -0700)
Rohnerville

Weather History for KFOT - July, 2019

Change the Weather History Date:

Sunday, July 14, 2019

  Actual Average (KEKA) Record (KEKA)
Temperature  
Mean Temperature 60 °F -  
Max Temperature 66 °F 62 °F 71 °F (1947)
Min Temperature 53 °F 52 °F 44 °F (1887)
Degree Days  
Heating Degree Days 6    
Growing Degree Days 10 (Base 50)    
Moisture  
Dew Point 56 °F    
Average Humidity 89    
Maximum Humidity 100    
Minimum Humidity 73    
Precipitation  
Precipitation 0.00 in - - ()
Sea Level Pressure  
Sea Level Pressure 30.09 in    
Wind  
Wind Speed 6 mph (WNW)    
Max Wind Speed 17 mph    
Max Gust Speed 20 mph    
Visibility 8 miles    
Events      
Averages and records for this station are not official NWS values.
T = Trace of Precipitation, MM = Missing Value Source: NWS Daily Summary

Daily Weather History Graph

Daily Weather History Graph

Search for Another Location

Airport or City:

Astronomy

Jul. 14, 2019 Rise Set
Actual Time 5:57 AM PDT 8:46 PM PDT
Civil Twilight 5:25 AM PDT 9:18 PM PDT
Nautical Twilight 4:44 AM PDT 9:59 PM PDT
Astronomical Twilight 3:58 AM PDT 10:45 PM PDT
Moon 7:14 PM PDT (7/14) 4:03 AM PDT (7/14)
Length of Visible Light 15h 53m
Length of Day
14h 48m
Waxing Gibbous, 96% of the Moon is Illuminated
Jul 14
Waxing Gibbous
Jul 16
Full
Jul 24
Last Quarter
Jul 31
New
Aug 7
First Quarter

Hourly Weather History & Observations

Time (PDT) Temp. Dew Point Humidity Pressure Visibility Wind Dir Wind Speed Gust Speed Precip Events Conditions
12:10 AM 57.2 °F 55.4 °F 94% 30.05 in 10.0 mi NW 5.8 mph - N/A   Overcast
12:30 AM 57.2 °F 55.4 °F 94% 30.04 in 10.0 mi NNW 3.5 mph - N/A   Overcast
12:50 AM 57.2 °F 55.4 °F 94% 30.04 in 10.0 mi Calm Calm - N/A   Overcast
1:10 AM 57.2 °F 55.4 °F 94% 30.03 in 10.0 mi Calm Calm - N/A   Overcast
1:30 AM 57.2 °F 55.4 °F 94% 30.02 in 10.0 mi Calm Calm - N/A   Overcast
1:50 AM 57.2 °F 55.4 °F 94% 30.02 in 10.0 mi Calm Calm - N/A   Overcast
2:10 AM 57.2 °F 55.4 °F 94% 30.02 in 10.0 mi SE 4.6 mph - N/A   Overcast
2:30 AM 55.4 °F 53.6 °F 94% 30.01 in 10.0 mi SE 5.8 mph - N/A   Scattered Clouds
2:50 AM 55.4 °F 53.6 °F 94% 30.01 in 10.0 mi Calm Calm - N/A   Clear
3:10 AM 53.6 °F 53.6 °F 100% 30.02 in 10.0 mi NW 5.8 mph - N/A   Clear
3:30 AM 55.4 °F 53.6 °F 94% 30.02 in 10.0 mi Calm Calm - N/A   Mostly Cloudy
3:50 AM 55.4 °F 53.6 °F 94% 30.03 in 10.0 mi Calm Calm - N/A   Overcast
4:10 AM 55.4 °F 55.4 °F 100% 30.03 in 10.0 mi Calm Calm - N/A   Overcast
4:30 AM 55.4 °F 55.4 °F 100% 30.03 in 6.0 mi WNW 4.6 mph - N/A   Overcast
4:50 AM 55.4 °F 55.4 °F 100% 30.03 in 8.0 mi NNW 4.6 mph - N/A   Overcast
5:10 AM 57.2 °F 55.4 °F 94% 30.03 in 10.0 mi NNW 3.5 mph - N/A   Overcast
5:30 AM 57.2 °F 55.4 °F 94% 30.03 in 10.0 mi Calm Calm - N/A   Overcast
5:50 AM 57.2 °F 55.4 °F 94% 30.03 in 10.0 mi Calm Calm - N/A   Overcast
6:10 AM 57.2 °F 55.4 °F 94% 30.03 in 10.0 mi Calm Calm - N/A   Overcast
6:30 AM 57.2 °F 55.4 °F 94% 30.04 in 10.0 mi Calm Calm - N/A   Overcast
6:50 AM 57.2 °F 55.4 °F 94% 30.04 in 10.0 mi Calm Calm - N/A   Overcast
7:10 AM 57.2 °F 55.4 °F 94% 30.05 in 10.0 mi Calm Calm - N/A   Overcast
7:30 AM 57.2 °F 55.4 °F 94% 30.05 in 10.0 mi Calm Calm - N/A   Overcast
7:50 AM 57.2 °F 55.4 °F 94% 30.05 in 10.0 mi SE 3.5 mph - N/A   Overcast
8:10 AM 59.0 °F 55.4 °F 88% 30.05 in 10.0 mi SE 3.5 mph - N/A   Mostly Cloudy
8:30 AM 59.0 °F 55.4 °F 88% 30.06 in 10.0 mi Calm Calm - N/A   Partly Cloudy
8:50 AM 60.8 °F 55.4 °F 82% 30.06 in 10.0 mi Calm Calm - N/A   Partly Cloudy
9:10 AM 62.6 °F 55.4 °F 77% 30.07 in 10.0 mi WNW 4.6 mph - N/A   Clear
9:30 AM 62.6 °F 57.2 °F 82% 30.07 in 10.0 mi WNW 8.1 mph - N/A   Clear
9:50 AM 60.8 °F 57.2 °F 88% 30.07 in 10.0 mi WNW 12.7 mph - N/A   Scattered Clouds
10:10 AM 59.0 °F 55.4 °F 88% 30.08 in 10.0 mi WNW 12.7 mph - N/A   Mostly Cloudy
10:30 AM 59.0 °F 55.4 °F 88% 30.09 in 8.0 mi WNW 12.7 mph - N/A   Overcast
10:50 AM 59.0 °F 57.2 °F 94% 30.09 in 10.0 mi WNW 16.1 mph - N/A   Overcast
11:10 AM 60.8 °F 57.2 °F 88% 30.10 in 10.0 mi WNW 12.7 mph - N/A   Overcast
11:30 AM 62.6 °F 57.2 °F 82% 30.11 in 10.0 mi West 12.7 mph - N/A   Mostly Cloudy
11:50 AM 62.6 °F 57.2 °F 82% 30.11 in 10.0 mi WNW 12.7 mph - N/A   Mostly Cloudy
12:10 PM 62.6 °F 57.2 °F 82% 30.11 in 9.0 mi WNW 11.5 mph - N/A   Scattered Clouds
12:30 PM 62.6 °F 57.2 °F 82% 30.12 in 10.0 mi West 13.8 mph - N/A   Scattered Clouds
12:50 PM 64.4 °F 57.2 °F 77% 30.12 in 10.0 mi WNW 12.7 mph - N/A   Clear
1:10 PM 64.4 °F 57.2 °F 77% 30.12 in 10.0 mi WNW 11.5 mph - N/A   Partly Cloudy
1:30 PM 64.4 °F 57.2 °F 77% 30.12 in 10.0 mi West 12.7 mph - N/A   Partly Cloudy
1:50 PM 64.4 °F 57.2 °F 77% 30.12 in 10.0 mi WNW 15.0 mph - N/A   Partly Cloudy
2:10 PM 64.4 °F 57.2 °F 77% 30.12 in 10.0 mi West 12.7 mph - N/A   Scattered Clouds
2:30 PM 66.2 °F 57.2 °F 73% 30.12 in 8.0 mi WNW 13.8 mph 18.4 mph N/A   Scattered Clouds
2:50 PM 66.2 °F 57.2 °F 73% 30.12 in 10.0 mi WNW 13.8 mph - N/A   Scattered Clouds
3:10 PM 66.2 °F 57.2 °F 73% 30.12 in 10.0 mi WNW 13.8 mph 18.4 mph N/A   Partly Cloudy
3:30 PM 66.2 °F 57.2 °F 73% 30.12 in 10.0 mi WNW 15.0 mph - N/A   Scattered Clouds
3:50 PM 66.2 °F 57.2 °F 73% 30.12 in 10.0 mi West 17.3 mph - N/A   Partly Cloudy
4:10 PM 64.4 °F 57.2 °F 77% 30.11 in 10.0 mi West 17.3 mph - N/A   Partly Cloudy
4:50 PM 64.4 °F 57.2 °F 77% 30.11 in 10.0 mi WNW 15.0 mph - N/A   Clear
5:10 PM 66.2 °F 59.0 °F 78% 30.11 in 10.0 mi West 15.0 mph - N/A   Clear
5:30 PM 64.4 °F 59.0 °F 83% 30.11 in 10.0 mi West 12.7 mph - N/A   Clear
5:50 PM 64.4 °F 57.2 °F 77% 30.11 in 10.0 mi WNW 13.8 mph 19.6 mph N/A   Clear
6:10 PM 64.4 °F 57.2 °F 77% 30.11 in 10.0 mi West 13.8 mph - N/A   Clear
6:30 PM 62.6 °F 57.2 °F 82% 30.11 in 10.0 mi West 15.0 mph - N/A   Clear
6:50 PM 62.6 °F 57.2 °F 82% 30.11 in 10.0 mi WNW 13.8 mph - N/A   Clear
7:10 PM 59.0 °F 57.2 °F 94% 30.12 in 10.0 mi WNW 15.0 mph - N/A   Scattered Clouds
7:30 PM 59.0 °F 57.2 °F 94% 30.12 in 10.0 mi WNW 11.5 mph - N/A   Mostly Cloudy
7:50 PM 59.0 °F 57.2 °F 94% 30.13 in 9.0 mi WNW 11.5 mph - N/A   Mostly Cloudy
8:10 PM 57.2 °F 57.2 °F 100% 30.13 in 6.0 mi WNW 10.4 mph - N/A   Mostly Cloudy
8:30 PM 57.2 °F 57.2 °F 100% 30.14 in 1.8 mi WNW 10.4 mph - N/A   Overcast
8:50 PM 57.2 °F 55.4 °F 94% 30.14 in 0.2 mi WNW 9.2 mph - N/A   Overcast
9:10 PM 57.2 °F 55.4 °F 94% 30.14 in 0.2 mi NW 5.8 mph - N/A   Overcast
9:30 PM 57.2 °F 55.4 °F 94% 30.14 in 0.2 mi NW 5.8 mph - N/A   Overcast
9:50 PM 57.2 °F 55.4 °F 94% 30.15 in 0.2 mi WNW 4.6 mph - N/A   Overcast
10:10 PM 57.2 °F 55.4 °F 94% 30.15 in 0.5 mi WNW 5.8 mph - N/A   Overcast
10:30 PM 57.2 °F 55.4 °F 94% 30.15 in 0.2 mi NW 3.5 mph - N/A   Overcast
10:50 PM 55.4 °F 55.4 °F 100% 30.15 in 0.2 mi Calm Calm - N/A   Overcast
11:10 PM 55.4 °F 55.4 °F 100% 30.15 in 0.2 mi Calm Calm - N/A   Overcast
11:30 PM 55.4 °F 55.4 °F 100% 30.15 in 0.2 mi Calm Calm - N/A   Overcast
11:50 PM 55.4 °F 55.4 °F 100% 30.15 in 0.2 mi Calm Calm - N/A   Overcast